Lancaster, CA

8:54 AM PST on February 24, 2018 (GMT -0800)
Gen Fox

Weather History for KWJF - August, 2014

Change the Weather History Date:

Sunday, August 17, 2014

  Actual Average Record
Temperature  
Mean Temperature 83 °F 81 °F  
Max Temperature 102 °F 98 °F 109 °F (1950)
Min Temperature 64 °F 64 °F 52 °F (1987)
Degree Days  
Heating Degree Days 0    
Month to date heating degree days 0  
Since 1 June heating degree days 0  
Since 1 July heating degree days 0  
Cooling Degree Days 18    
Month to date cooling degree days 273  
Year to date cooling degree days 1460  
Since 1 June cooling degree days 1260  
Growing Degree Days 33 (Base 50)    
Moisture  
Dew Point 34 °F    
Average Humidity 19    
Maximum Humidity 32    
Minimum Humidity 6    
Precipitation  
Precipitation 0.00 in 0.00 in 0.91 in (1977)
Month to date precipitation 0.03 0.05  
Year to date precipitation 2.35 5.05  
Since 1 July precipitation 0.03  
Snow  
Snow 0.00 in - 0.00 in ()
Month to date snowfall 0.0  
Since 1 June snowfall 0.0  
Since 1 July snowfall 0.0  
Snow Depth 0.00 in    
Sea Level Pressure  
Sea Level Pressure 29.90 in    
Wind  
Wind Speed 9 mph (WSW)    
Max Wind Speed 24 mph    
Max Gust Speed 29 mph    
Visibility 10 miles    
Events      
T = Trace of Precipitation, MM = Missing Value Source: NWS Daily Summary

Daily Weather History Graph

Daily Weather History Graph

Search for Another Location

Airport or City:

Trip Planner

Search our weather history database for the weather conditions in past years. The results will help you decide how hot, cold, wet, or windy it might be!

Date:

Astronomy

Aug. 17, 2014 Rise Set
Actual Time 6:14 AM PDT 7:38 PM PDT
Civil Twilight 5:48 AM PDT 8:04 PM PDT
Nautical Twilight 5:16 AM PDT 8:36 PM PDT
Astronomical Twilight 4:43 AM PDT 9:09 PM PDT
Moon No Moon Rise 1:45 PM PDT (8/17)
Length of Visible Light 14h 16m
Length of Day
13h 23m
Waning Gibbous, 47% of the Moon is Illuminated
Aug 17
Waning Gibbous
Aug 25
New
Sep 2
First Quarter
Sep 8
Full
Sep 15
Last Quarter

Hourly Weather History & Observations

Time (PDT) Temp. Dew Point Humidity Pressure Visibility Wind Dir Wind Speed Gust Speed Precip Events Conditions
12:56 AM 77.0 °F 36.0 °F 23% 29.94 in 10.0 mi WSW 9.2 mph - N/A   Clear
1:56 AM 72.0 °F 36.0 °F 27% 29.94 in 10.0 mi West 9.2 mph - N/A   Clear
2:56 AM 68.0 °F 37.0 °F 32% 29.94 in 10.0 mi Calm Calm - N/A   Clear
3:56 AM 70.0 °F 35.1 °F 28% 29.94 in 10.0 mi West 6.9 mph - N/A   Clear
4:56 AM 68.0 °F 34.0 °F 28% 29.95 in 10.0 mi Calm Calm - N/A   Clear
5:56 AM 71.1 °F 35.1 °F 27% 29.95 in 10.0 mi WSW 4.6 mph - N/A   Clear
6:56 AM 66.0 °F 36.0 °F 33% 29.97 in 10.0 mi Calm Calm - N/A   Clear
7:56 AM 75.0 °F 37.9 °F 26% 29.97 in 10.0 mi Calm Calm - N/A   Clear
8:56 AM 87.1 °F 39.0 °F 18% 29.95 in 10.0 mi SW 10.4 mph - N/A   Clear
9:56 AM 91.9 °F 36.0 °F 14% 29.94 in 10.0 mi WSW 8.1 mph - N/A   Clear
10:56 AM 97.0 °F 32.0 °F 10% 29.93 in 10.0 mi WSW 6.9 mph - N/A   Clear
11:56 AM 99.0 °F 35.1 °F 11% 29.92 in 10.0 mi WSW 10.4 mph - N/A   Clear
12:56 PM 99.0 °F 35.1 °F 11% 29.90 in 10.0 mi SW 8.1 mph 16.1 mph N/A   Clear
1:56 PM 100.9 °F 23.0 °F 6% 29.88 in 10.0 mi SW 8.1 mph 19.6 mph N/A   Clear
2:56 PM 100.9 °F 30.9 °F 9% 29.87 in 10.0 mi SW 15.0 mph 23.0 mph N/A   Clear
3:56 PM 100.0 °F 36.0 °F 11% 29.86 in 10.0 mi WSW 16.1 mph 26.5 mph N/A   Clear
4:56 PM 99.0 °F 39.9 °F 13% 29.85 in 10.0 mi WSW 17.3 mph - N/A   Clear
5:56 PM 96.1 °F 43.0 °F 16% 29.84 in 10.0 mi WSW 19.6 mph 26.5 mph N/A   Clear
6:56 PM 91.9 °F 35.1 °F 13% 29.85 in 10.0 mi West 23.0 mph - N/A   Clear
7:56 PM 88.0 °F 28.9 °F 12% 29.85 in 10.0 mi West 19.6 mph - N/A   Clear
8:56 PM 84.0 °F 30.0 °F 14% 29.86 in 10.0 mi West 11.5 mph - N/A   Clear
9:56 PM 81.0 °F 30.0 °F 16% 29.86 in 10.0 mi West 10.4 mph - N/A   Clear
10:56 PM 78.1 °F 28.0 °F 16% 29.86 in 10.0 mi West 6.9 mph - N/A   Clear
11:56 PM 79.0 °F 30.9 °F 17% 29.86 in 10.0 mi WSW 4.6 mph - N/A   Clear